User: anonymous
Location: Hepcat Sky Observatory
(29.9800°N, 95.6500°W)
Time: 17:19:24
(UTC-05:00)
Language:

SL-16 Debris - Orbit

View from above orbital plane
View from above orbital plane
View from above satellite
View from above satellite

Ground track
Ground track

The orbit data is extracted from the following two-line orbital elements,

1 26076U 99040E   14271.42043426  .00016866  00000-0  12513-2 0  4393
2 26076 028.5202 327.3324 4677708 250.8458 149.6744 06.22369796249636
Epoch (UTC): 28 September 2014 10:05:25
Eccentricity: 0.4677708
inclination: 28.5202°
perigee height: 266 km
apogee height: 11946 km
right ascension of ascending node: 327.3324°
argument of perigee: 250.8458°
revolutions per day: 6.22369796
mean anomaly at epoch: 149.6744°
orbit number at epoch: 24963

The dashed part of the orbit path shows where the satellite is in the earth's shadow,  

DLR